This demonstration page uses our WeatherBlox Daily Observations layout. Learn more.

Left ArrowRight Arrow

53.62937, 11.41316

Hourly Observations for February 19, 2019

Temp ( °F °C ) Dew Point ( °F °C ) Humidity (%) Winds ( mph kmh ) Pressure ( in mb ) Visibility ( mi km ) Precip ( " mm )
12:20 am 00:20 Mostly Cloudy 37 3 32 0 81 81 SW 3 6 29.89 1012 30 48 N/A
1:20 am 01:20 Mostly Cloudy 41 5 34 1 76 76 SSW 5 7 29.89 1012 30 48 N/A
2:20 am 02:20 Mostly Cloudy 41 5 34 1 76 76 SW 5 7 29.86 1011 30 48 N/A
3:20 am 03:20 Mostly Cloudy 39 4 34 1 81 81 SW 6 9 29.86 1011 30 48 N/A
4:20 am 04:20 Cloudy 39 4 32 0 75 75 SW 5 7 29.83 1010 30 48 N/A
5:20 am 05:20 Cloudy 39 4 32 0 75 75 SSW 7 11 29.83 1010 30 48 N/A
6:20 am 06:20 Cloudy 39 4 34 1 81 81 SW 7 11 29.83 1010 30 48 N/A
7:20 am 07:20 Cloudy 41 5 34 1 76 76 WSW 6 9 29.86 1011 30 48 N/A
7:42 am 07:42 Cloudy with Light Rain 41 5 36 2 81 81 WSW 7 11 29.86 1011 6 9 N/A
7:48 am 07:48 Cloudy with Light Rain 41 5 36 2 81 81 W 8 13 29.86 1011 4 6 N/A
8:04 am 08:04 Cloudy with Rain 41 5 37 3 87 87 W 9 15 29.86 1011 3 5 N/A
8:20 am 08:20 Cloudy with Rain 41 5 37 3 87 87 WSW 7 11 29.86 1011 3 5 N/A
8:42 am 08:42 Mostly Cloudy with Light Rain 41 5 39 4 93 93 WSW 6 9 29.86 1011 3 5 N/A
9:20 am 09:20 Cloudy with Mist and Fog 41 5 39 4 93 93 SW 7 11 29.89 1012 3 5 N/A
10:20 am 10:20 Mostly Cloudy 43 6 39 4 87 87 WSW 10 17 29.89 1012 4 7 N/A
11:20 am 11:20 Mostly Cloudy 45 7 39 4 81 81 WSW 14 22 29.89 1012 6 9 N/A
11:47 am 11:47 Mostly Cloudy 45 7 39 4 81 81 WSW 13 20 29.89 1012 30 48 N/A
12:20 pm 12:20 Partly Cloudy 45 7 39 4 81 81 WSW 14 22 29.89 1012 30 48 N/A
1:20 pm 13:20 Mostly Sunny 48 9 39 4 71 71 WSW 16 26 29.86 1011 30 48 N/A
2:20 pm 14:20 Mostly Cloudy 48 9 37 3 66 66 WSW 14 22 29.86 1011 30 48 N/A
3:20 pm 15:20 Mostly Cloudy with Light Showers 46 8 39 4 76 76 W 18 30 29.89 1012 30 48 N/A
3:36 pm 15:36 Mostly Cloudy 46 8 39 4 76 76 W 15 24 29.89 1012 30 48 N/A
4:20 pm 16:20 Mostly Cloudy with Light Showers 45 7 41 5 87 87 W 15 24 29.89 1012 5 8 N/A
5:20 pm 17:20 Mostly Cloudy 45 7 39 4 81 81 W 13 20 29.89 1012 30 48 N/A
6:20 pm 18:20 Mostly Cloudy 45 7 37 3 76 76 W 17 28 29.89 1012 30 48 N/A
6:50 pm 18:50 Mostly Cloudy 45 7 37 3 76 76 W 17 28 29.89 1012 30 48 N/A
7:20 pm 19:20 Mostly Cloudy 45 7 37 3 76 76 W 17 28 29.92 1013 30 48 N/A
8:20 pm 20:20 Mostly Cloudy 43 6 37 3 81 81 W 15 24 29.92 1013 30 48 N/A
9:20 pm 21:20 Mostly Clear 43 6 37 3 81 81 W 16 26 29.92 1013 30 48 N/A
10:20 pm 22:20 Mostly Clear 41 5 37 3 87 87 W 10 17 29.95 1014 30 48 N/A
11:20 pm 23:20 Mostly Cloudy 43 6 37 3 81 81 W 14 22 29.95 1014 30 48 N/A

Powered by AerisWeather